| time (UTC) | temp F | wind direction | speed knots | gust knots | rain 1hr in | rain 24hr in | rain mn in | humidity % | barometer mb |
| 20260505071539 | 65 | 225 | 5.2 | 9.6 | 0.00 | 0.00 | 0.00 | 62 | 1009.0 |
| 20260505070036 | 65 | 252 | 2.6 | 6.1 | 0.00 | 0.00 | 0.00 | 63 | 1009.1 |
| 20260505064551 | 64 | 262 | 2.6 | 8.7 | 0.00 | 0.00 | 0.00 | 64 | 1009.1 |
| 20260505063035 | 64 | 229 | 2.6 | 7.8 | 0.00 | 0.00 | 0.00 | 66 | 1009.2 |
| 20260505061534 | 62 | 264 | 2.6 | 6.1 | 0.00 | 0.00 | 0.00 | 70 | 1009.3 |
| 20260505060134 | 60 | 259 | 3.5 | 7.8 | 0.00 | 0.00 | 0.00 | 75 | 1009.3 |
| 20260505054505 | 57 | 271 | 1.7 | 5.2 | 0.00 | 0.00 | 0.00 | 81 | 1009.4 |
| 20260505053001 | 57 | 282 | 0.9 | 1.7 | 0.00 | 0.00 | 0.00 | 82 | 1009.3 |
| 20260505051558 | 57 | 272 | 0.9 | 1.7 | 0.00 | 0.00 | 0.00 | 83 | 1009.3 |
| 20260505041521 | 59 | 272 | 0.9 | 1.7 | 0.00 | 0.00 | 0.00 | 80 | 1008.7 |
| 20260505040020 | 60 | 272 | 0.9 | 2.6 | 0.00 | 0.00 | 0.00 | 78 | 1008.5 |
| 20260505034605 | 60 | 272 | 0.0 | 1.7 | 0.00 | 0.00 | 0.00 | 78 | 1008.4 |
| 20260505033045 | 60 | 272 | 0.0 | 1.7 | 0.00 | 0.00 | 0.00 | 77 | 1008.4 |
| 20260505031513 | 61 | 272 | 0.9 | 1.7 | 0.00 | 0.00 | 0.00 | 76 | 1008.3 |
| 20260505030027 | 63 | 256 | 0.0 | 2.6 | 0.00 | 0.00 | 0.00 | 73 | 1008.4 |
| 20260505024509 | 63 | 293 | 0.9 | 2.6 | 0.00 | 0.00 | 0.00 | 72 | 1008.4 |
| 20260505023003 | 64 | 245 | 0.0 | 1.7 | 0.00 | 0.00 | 0.00 | 70 | 1008.3 |
| 20260505021559 | 65 | 265 | 1.7 | 3.5 | 0.00 | 0.00 | 0.00 | 69 | 1008.2 |
| 20260505020107 | 66 | 254 | 1.7 | 3.5 | 0.00 | 0.00 | 0.00 | 66 | 1008.1 |
| 20260505014550 | 67 | 244 | 0.9 | 2.6 | 0.00 | 0.00 | 0.00 | 65 | 1008.0 |
| 20260505013046 | 68 | 263 | 0.9 | 1.7 | 0.00 | 0.00 | 0.00 | 62 | 1007.9 |
| 20260505011545 | 70 | 257 | 0.9 | 1.7 | 0.00 | 0.00 | 0.00 | 60 | 1007.9 |
| 20260505010040 | 72 | 257 | 0.0 | 0.9 | 0.00 | 0.00 | 0.00 | 57 | 1008.0 |
| 20260505004554 | 73 | 257 | 0.0 | 0.9 | 0.00 | 0.00 | 0.00 | 53 | 1007.9 |
| 20260505003029 | 74 | 257 | 0.0 | 1.7 | 0.00 | 0.00 | 0.00 | 52 | 1007.8 |
| 20260505001533 | 75 | 250 | 0.0 | 1.7 | 0.00 | 0.00 | 0.00 | 49 | 1007.8 |
| 20260505000027 | 76 | 250 | 0.9 | 3.5 | 0.00 | 0.00 | 0.00 | 46 | 1007.9 |
| 20260504234525 | 77 | 287 | 2.6 | 7.8 | 0.00 | 0.00 | 0.00 | 45 | 1008.0 |
| 20260504233025 | 78 | 241 | 4.3 | 10.4 | 0.00 | 0.00 | 0.00 | 44 | 1008.0 |
| 20260504231523 | 78 | 249 | 3.5 | 11.3 | 0.00 | 0.00 | 0.00 | 44 | 1007.9 |
| 20260504230020 | 78 | 279 | 3.5 | 8.7 | 0.00 | 0.00 | 0.00 | 44 | 1007.8 |
| 20260504224517 | 78 | 244 | 4.3 | 8.7 | 0.00 | 0.00 | 0.00 | 44 | 1007.9 |
| 20260504223016 | 78 | 207 | 3.5 | 9.6 | 0.00 | 0.00 | 0.00 | 44 | 1008.1 |
| 20260504221513 | 78 | 252 | 3.5 | 13.0 | 0.00 | 0.00 | 0.00 | 45 | 1008.3 |
| 20260504220011 | 79 | 225 | 5.2 | 7.8 | 0.00 | 0.00 | 0.00 | 44 | 1008.3 |
| 20260504214504 | 79 | 252 | 6.1 | 13.9 | 0.00 | 0.00 | 0.00 | 44 | 1008.3 |
| 20260504213009 | 78 | 275 | 3.5 | 11.3 | 0.00 | 0.00 | 0.00 | 47 | 1008.3 |
| 20260504211600 | 78 | 287 | 2.6 | 8.7 | 0.00 | 0.00 | 0.00 | 48 | 1008.5 |
| 20260504210059 | 78 | 252 | 8.7 | 13.0 | 0.00 | 0.00 | 0.00 | 47 | 1008.7 |
| 20260504204552 | 77 | 252 | 5.2 | 9.6 | 0.00 | 0.00 | 0.00 | 49 | 1008.8 |
| 20260504203049 | 76 | 263 | 3.5 | 8.7 | 0.00 | 0.00 | 0.00 | 50 | 1008.9 |
| 20260504201545 | 75 | 38 | 3.5 | 12.2 | 0.00 | 0.00 | 0.00 | 50 | 1009.1 |
| 20260504200041 | 74 | 193 | 4.3 | 13.9 | 0.00 | 0.00 | 0.00 | 51 | 1009.3 |
| 20260504194539 | 73 | 291 | 3.5 | 13.0 | 0.00 | 0.00 | 0.00 | 51 | 1009.4 |
| 20260504193043 | 73 | 257 | 4.3 | 10.4 | 0.00 | 0.00 | 0.00 | 52 | 1009.8 |
| 20260504191603 | 71 | 284 | 3.5 | 12.2 | 0.00 | 0.00 | 0.00 | 56 | 1009.9 |
| 20260504190039 | 69 | 222 | 6.1 | 11.3 | 0.00 | 0.00 | 0.00 | 62 | 1010.2 |
| 20260504184542 | 67 | 220 | 2.6 | 10.4 | 0.00 | 0.00 | 0.00 | 67 | 1010.4 |
| 20260504183031 | 71 | 242 | 7.0 | 15.6 | 0.00 | 0.00 | 0.00 | 54 | 1011.3 |
| 20260504181533 | 74 | 284 | 7.0 | 12.2 | 0.00 | 0.00 | 0.00 | 48 | 1011.1 |
| 20260504180034 | 76 | 265 | 7.0 | 12.2 | 0.00 | 0.00 | 0.00 | 46 | 1010.7 |
| 20260504174525 | 74 | 281 | 3.5 | 10.4 | 0.00 | 0.00 | 0.00 | 47 | 1010.4 |
| 20260504173021 | 73 | 239 | 7.8 | 13.9 | 0.00 | 0.00 | 0.00 | 49 | 1010.6 |
| 20260504171518 | 71 | 213 | 3.5 | 8.7 | 0.00 | 0.00 | 0.00 | 53 | 1010.5 |
| 20260504081512 | 47 | 355 | 0.0 | 0.9 | 0.00 | 0.00 | 0.00 | 83 | 1013.7 |